Simultaneous Nadir Overpasses (SNOs) Predictions

Prediction of SNOs between AQUA and NPP Satellite Orbit:

Table of predicted SNOs for the next 14.0 days since TLE Epoch: 7/8/2016
Index Date (AQUA) Time (AQUA) Lat,Lon (AQUA) SZA (AQUA ) Date (NPP) Time (NPP) Lat,Lon (NPP) SZA (NPP ) Distance(km) Time Diff (sec)
1 07/11/2016 05:32:23 74.67, -27.75 77.49 07/11/2016 05:32:09 74.66, -27.76 77.50 0.44 14
2 07/11/2016 06:21:26 -75.90, 143.27 103.94 07/11/2016 06:22:29 -75.90, 143.26 103.99 0.37 63
3 07/13/2016 20:59:47 -73.57, -82.03 100.90 07/13/2016 20:58:42 -73.57, -82.04 100.84 0.45 65
4 07/13/2016 21:48:44 75.02, 89.03 77.48 07/13/2016 21:48:56 75.01, 88.98 77.48 1.47 12
5 07/16/2016 13:16:06 -74.03, 34.87 100.98 07/16/2016 13:15:27 -74.03, 34.82 100.94 1.43 39
6 07/16/2016 14:05:04 75.41,-154.03 77.46 07/16/2016 14:05:42 75.40,-154.09 77.45 1.88 38
7 07/19/2016 05:32:24 -74.53, 151.93 101.08 07/19/2016 05:32:11 -74.53, 151.87 101.05 1.78 13
8 07/19/2016 06:21:23 75.84, -36.90 77.43 07/19/2016 06:22:27 75.83, -36.95 77.39 1.67 64
9 07/21/2016 20:59:40 73.63, 98.10 80.45 07/21/2016 20:58:36 73.63, 98.10 80.50 0.13 64
10 07/21/2016 21:48:41 -75.02, -90.95 101.12 07/21/2016 21:48:54 -75.02, -91.00 101.12 1.48 13




NCC Satellite Simultaneous Nadir Overpasses (SNOs) Prediction Service
